Airfield :
LOGIN :

Register | Disclaimer

   EN    FR    IT 

 










Legend :    VFR   Marginal VFR   IFR   Intensive IFR   Very Intensive IFR
Visi :
Ceiling :
>= 8 km
>= 3000ft
5 to 8 km
1000 to 3000 ft
1500m to 5 km
500 to 1000 ft
800 to 1500m
200 to 500 ft
< 800m
< 200 ft
Symbols :   Thunderstorms  Fog  Heavy snow  Heavy precipitations  Wind > 20 kt
SIGMETs :     Misc.  Thunderstorms  Icing  Turbulence  Mountain Waves  Volcanic Ashes







- Airport Elevation : 7 ft
- IATA code : ESH
- Download approach charts


EGKA - Shoreham

CURRENT METAR :
  • 131550Z 05009KT 9999 FEW028 03/M01 Q1016

EXPIRED METARs :
  • 131520Z 07010KT 9999 FEW028 05/M00 Q1016
  • 131450Z 08011KT 9999 FEW028 05/M00 Q1016
  • 131420Z 08013KT 9999 SCT030 06/M00 Q1016
  • 131350Z 08011KT 9999 SCT030 05/M00 Q1016
  • 131320Z 08013KT 9999 SCT028 05/M00 Q1016

TAF TAF EGKA
Valid from the 13 at 15:00 until the 13 at 19:00 UTC


131356Z 1315/1319 09014KT 9999 SCT025
ATIS : +44 1273 467 372
No reported NOTAMs for that airfield.



MET'MAP, your aeronautical weather chart ! - Copyright ORBIFLY December 2007 - Disclaimer

ORBIFLY MET'MAP TEAM :

Programming & Development : Alexandra Zaïnal
Concept & Development : Baudouin d'Aumeries
Co-Development & Prog : Marc-Olivier Méhu
Technical & hardware support : Manuel Goepfert

Contact : metmap@orbifly.com




SOURCES & CREDITS :

   NOAA